Weather History for KCKC - October, 2012

Change the Weather History Date:

Friday, October 12, 2012

  Actual Average Record
Temperature  
Mean Temperature 30 °F -  
Max Temperature 37 °F 48 °F 69 °F (2000)
Min Temperature 23 °F 33 °F 17 °F (2006)
Degree Days  
Heating Degree Days 35    
Moisture  
Dew Point 20 °F    
Average Humidity 65    
Maximum Humidity 86    
Minimum Humidity 44    
Precipitation  
Precipitation 0.00 in - - ()
Sea Level Pressure  
Sea Level Pressure 30.26 in    
Wind  
Wind Speed 6 mph (South)    
Max Wind Speed 16 mph    
Max Gust Speed 23 mph    
Visibility 10 miles    
Events      
Averages and records for this station are not official NWS values.
T = Trace of Precipitation, MM = Missing Value Source: NWS Daily Summary

Daily Weather History Graph

Daily Weather History Graph

Search for Another Location

Airport or City:

Trip Planner

Search our weather history database for the weather conditions in past years. The results will help you decide how hot, cold, wet, or windy it might be!

Date:

Astronomy

Oct. 12, 2012 Rise Set
Actual Time 7:16 AM CDT 6:17 PM CDT
Civil Twilight 6:45 AM CDT 6:48 PM CDT
Nautical Twilight 6:10 AM CDT 7:24 PM CDT
Astronomical Twilight 5:34 AM CDT 8:00 PM CDT
Moon 3:48 AM CDT (10/12) 4:37 PM CDT (10/12)
Length of Visible Light 12h 03m
Length of Day
11h 00m
Waning Crescent, 10% of the Moon is Illuminated
Oct 12
Waning Crescent
Oct 15
New
Oct 21
First Quarter
Oct 29
Full
Nov 6
Last Quarter

Hourly Weather History & Observations

Time (CDT) Temp. Windchill Dew Point Humidity Pressure Visibility Wind Dir Wind Speed Gust Speed Precip Events Conditions
12:13 AM 26.6 °F 20.0 °F 23.0 °F 86% 30.25 in 10.0 mi West 5.8 mph - N/A   Clear
12:34 AM 26.6 °F 18.2 °F 23.0 °F 86% 30.26 in 10.0 mi WNW 8.1 mph - N/A   Clear
12:54 AM 28.4 °F 21.2 °F 23.0 °F 80% 30.26 in 10.0 mi WNW 6.9 mph - N/A   Clear
1:13 AM 28.4 °F 22.2 °F 23.0 °F 80% 30.27 in 10.0 mi West 5.8 mph - N/A   Clear
1:34 AM 28.4 °F 21.2 °F 23.0 °F 80% 30.28 in 10.0 mi WNW 6.9 mph - N/A   Scattered Clouds
1:54 AM 28.4 °F 22.2 °F 21.2 °F 74% 30.28 in 10.0 mi WNW 5.8 mph - N/A   Mostly Cloudy
2:14 AM 28.4 °F 23.3 °F 21.2 °F 74% 30.29 in 10.0 mi WNW 4.6 mph - N/A   Mostly Cloudy
2:34 AM 28.4 °F 24.6 °F 21.2 °F 74% 30.29 in 10.0 mi WNW 3.5 mph - N/A   Scattered Clouds
2:53 AM 26.6 °F 20.0 °F 21.2 °F 80% 30.29 in 10.0 mi WNW 5.8 mph - N/A   Scattered Clouds
3:14 AM 26.6 °F 20.0 °F 19.4 °F 74% 30.29 in 10.0 mi NW 5.8 mph - N/A   Clear
3:33 AM 26.6 °F 21.2 °F 19.4 °F 74% 30.30 in 10.0 mi NW 4.6 mph - N/A   Clear
3:54 AM 26.6 °F 17.5 °F 19.4 °F 74% 30.30 in 10.0 mi WNW 9.2 mph - N/A   Clear
4:14 AM 26.6 °F 16.8 °F 19.4 °F 74% 30.30 in 10.0 mi NW 10.4 mph - N/A   Clear
4:33 AM 26.6 °F 17.5 °F 19.4 °F 74% 30.31 in 10.0 mi NW 9.2 mph - N/A   Clear
4:54 AM 26.6 °F 16.8 °F 19.4 °F 74% 30.31 in 10.0 mi NW 10.4 mph 16.1 mph N/A   Clear
5:14 AM 26.6 °F 14.3 °F 19.4 °F 74% 30.30 in 10.0 mi NW 16.1 mph 20.7 mph N/A   Clear
5:53 AM 26.6 °F 14.7 °F 19.4 °F 74% 30.31 in 10.0 mi NW 15.0 mph 23.0 mph N/A   Clear
6:14 AM 24.8 °F 15.3 °F 19.4 °F 80% 30.33 in 10.0 mi NW 9.2 mph 16.1 mph N/A   Clear
6:33 AM 24.8 °F - 19.4 °F 80% 30.34 in 10.0 mi Calm Calm - N/A   Clear
6:54 AM 24.8 °F - 19.4 °F 80% 30.34 in 10.0 mi Calm Calm - N/A   Clear
7:13 AM 23.0 °F 17.0 °F 19.4 °F 86% 30.34 in 10.0 mi NW 4.6 mph - N/A   Clear
7:34 AM 23.0 °F 14.7 °F 17.6 °F 80% 30.34 in 10.0 mi NW 6.9 mph - N/A   Clear
7:53 AM 24.8 °F - 17.6 °F 74% 30.35 in 10.0 mi Calm Calm - N/A   Clear
8:14 AM 26.6 °F 22.6 °F 19.4 °F 74% 30.35 in 10.0 mi WNW 3.5 mph - N/A   Clear
8:34 AM 28.4 °F - 19.4 °F 69% 30.36 in 10.0 mi Calm Calm - N/A   Clear
9:14 AM 30.2 °F - 19.4 °F 64% 30.36 in 10.0 mi Calm Calm - N/A   Clear
9:34 AM 32.0 °F - 17.6 °F 55% 30.36 in 10.0 mi Calm Calm - N/A   Clear
9:53 AM 33.8 °F - 17.6 °F 52% 30.36 in 10.0 mi Calm Calm - N/A   Clear
10:14 AM 33.8 °F 29.6 °F 15.8 °F 48% 30.36 in 10.0 mi SE 4.6 mph - N/A   Clear
10:34 AM 35.6 °F 32.8 °F 17.6 °F 48% 30.36 in 10.0 mi SSE 3.5 mph - N/A   Clear
10:54 AM 35.6 °F 29.9 °F 17.6 °F 48% 30.34 in 10.0 mi SSE 6.9 mph - N/A   Clear
11:14 AM 35.6 °F 29.2 °F 15.8 °F 44% 30.35 in 10.0 mi SSE 8.1 mph - N/A   Clear
11:34 AM 35.6 °F 29.9 °F 15.8 °F 44% 30.35 in 10.0 mi SSE 6.9 mph - N/A   Clear
11:53 AM 35.6 °F 29.9 °F 15.8 °F 44% 30.34 in 10.0 mi SSE 6.9 mph - N/A   Clear
12:14 PM 35.6 °F 29.2 °F 15.8 °F 44% 30.34 in 10.0 mi SSE 8.1 mph - N/A   Clear
12:34 PM 35.6 °F 29.9 °F 15.8 °F 44% 30.33 in 10.0 mi South 6.9 mph - N/A   Clear
12:54 PM 35.6 °F 29.2 °F 15.8 °F 44% 30.32 in 10.0 mi SSE 8.1 mph - N/A   Clear
1:34 PM 37.4 °F 32.1 °F 19.4 °F 48% 30.31 in 10.0 mi South 6.9 mph - N/A   Clear
1:54 PM 37.4 °F 30.8 °F 17.6 °F 45% 30.30 in 10.0 mi South 9.2 mph - N/A   Clear
2:13 PM 37.4 °F 30.8 °F 19.4 °F 48% 30.29 in 10.0 mi South 9.2 mph - N/A   Clear
2:34 PM 35.6 °F 28.0 °F 19.4 °F 52% 30.29 in 10.0 mi South 10.4 mph - N/A   Clear
2:54 PM 35.6 °F 28.0 °F 19.4 °F 52% 30.28 in 10.0 mi South 10.4 mph - N/A   Clear
3:13 PM 33.8 °F 27.0 °F 17.6 °F 52% 30.27 in 10.0 mi South 8.1 mph - N/A   Clear
3:34 PM 33.8 °F 27.7 °F 17.6 °F 52% 30.26 in 10.0 mi South 6.9 mph - N/A   Clear
3:54 PM 33.8 °F 27.7 °F 17.6 °F 52% 30.25 in 10.0 mi SSE 6.9 mph - N/A   Clear
4:13 PM 35.6 °F 30.7 °F 15.8 °F 44% 30.25 in 10.0 mi South 5.8 mph - N/A   Clear
4:34 PM 33.8 °F 29.6 °F 15.8 °F 48% 30.24 in 10.0 mi South 4.6 mph - N/A   Clear
5:14 PM 33.8 °F 29.6 °F 19.4 °F 56% 30.22 in 10.0 mi South 4.6 mph - N/A   Clear
5:53 PM 30.2 °F 26.7 °F 19.4 °F 64% 30.19 in 10.0 mi SE 3.5 mph - N/A   Clear
6:14 PM 30.2 °F 26.7 °F 21.2 °F 69% 30.19 in 10.0 mi SE 3.5 mph - N/A   Clear
6:34 PM 30.2 °F - 21.2 °F 69% 30.18 in 10.0 mi Calm Calm - N/A   Clear
6:53 PM 30.2 °F - 19.4 °F 64% 30.18 in 10.0 mi Calm Calm - N/A   Clear
7:14 PM 30.2 °F 26.7 °F 21.2 °F 69% 30.17 in 10.0 mi ESE 3.5 mph - N/A   Mostly Cloudy
7:34 PM 30.2 °F 26.7 °F 21.2 °F 69% 30.16 in 10.0 mi ESE 3.5 mph - N/A   Overcast
7:53 PM 30.2 °F 26.7 °F 21.2 °F 69% 30.16 in 10.0 mi SE 3.5 mph - N/A   Overcast
8:14 PM 30.2 °F 26.7 °F 21.2 °F 69% 30.15 in 10.0 mi SE 3.5 mph - N/A   Overcast
8:33 PM 30.2 °F 25.4 °F 21.2 °F 69% 30.14 in 10.0 mi ESE 4.6 mph - N/A   Overcast
8:54 PM 30.2 °F 24.3 °F 21.2 °F 69% 30.13 in 10.0 mi SE 5.8 mph - N/A   Overcast
9:02 PM 30.2 °F 26.7 °F 21.2 °F 69% 30.13 in 10.0 mi SE 3.5 mph - N/A   Overcast
9:34 PM 32.0 °F 27.5 °F 21.2 °F 64% 30.12 in 10.0 mi SE 4.6 mph - N/A   Overcast
9:53 PM 32.0 °F 26.4 °F 23.0 °F 69% 30.11 in 10.0 mi SE 5.8 mph - N/A   Overcast
10:13 PM 33.8 °F 28.6 °F 24.8 °F 70% 30.10 in 10.0 mi SE 5.8 mph - N/A   Overcast
10:34 PM 33.8 °F 29.6 °F 24.8 °F 70% 30.09 in 10.0 mi SE 4.6 mph - N/A   Overcast
10:54 PM 33.8 °F 29.6 °F 26.6 °F 75% 30.08 in 10.0 mi SE 4.6 mph - N/A   Overcast
11:13 PM 33.8 °F 30.8 °F 26.6 °F 75% 30.07 in 10.0 mi SE 3.5 mph - N/A   Overcast
11:34 PM 33.8 °F 30.8 °F 26.6 °F 75% 30.06 in 10.0 mi ESE 3.5 mph - N/A   Overcast
11:54 PM 33.8 °F 29.6 °F 28.4 °F 81% 30.05 in 10.0 mi ESE 4.6 mph - N/A   Overcast